Погода в Урицке

Поиск расширенной информации на нашем сайте:

Полезная информация:

Новости сайта



02.01.2020
Опубликован Долгосрочный прогноз погоды по городам России и ближнего зарубежья на январь 2020 года.
Карты: Прогноз на январь и февраль 2020 года, Сравнение прогнозируемой аномалии приземной температуры воздуха на январь 2020 года по разным моделям.




Погода в Урицке - сегодня

Время (UTC), дата Ветер
(°,м/с) 
Видим.   Явления Облачность Т
(°С)
Тd
(°С)
f(%) Тe
(°С)
Pmin
(гПа)
dP
(гПа)
Po
(мм)
O2
(г/м3)
Тmin Tmax R s Состояние
почвы
12 22.10.21 200 (Ю) 20000 м    6/6 600 м 
[Sc]
+4.2 -0.3 72 +1  1010.8  1.5  738  293           
15 22.10.21 190 (Ю) н/о    10/10 600 м 
[Sc]
+5.3 +0.7 72 +3  1011.3  0.6  739  292    +5.5       
18 22.10.21 210 (ЮЗ) 10  н/о    10/10 600 м 
[Sc]
+6.1 +1.9 74 +3  1010.8  -0.4  738  291    +5.5     
21 22.10.21 210 (ЮЗ) 15-15{17}  н/о    10/10 600 м 
[Sc]
+6.3 +2.4 76 +2  1009.9  -0.9  738  290           
00 23.10.21 210 (ЮЗ) 13{15}  н/о    10/10 600 м 
[Sc]
+5.6 +1.9 77 +1  1010.5  0.5  738  291           
03 23.10.21 210 (ЮЗ) 10  20000 м    8/8 600 м 
[Sc]
+5 +0.9 75 +1  1011.5  739  292           
06 23.10.21 220 (ЮЗ) 20000 м    3/3 600 м верхняя 
[Sc|Ci sp]
+9.5 +4.3 70 +7  1013.2  2.1  740  288  +4.8         
09 23.10.21 220 (ЮЗ) 10  20000 м    5/3 600 м верхняя 
[Sc|Ci sp]
+11.3 +5 65 +9  1013.2  0.2  741  286           
12 23.10.21 220 (ЮЗ) 20000 м    8/4 600 м верхняя 
[Sc|Ci sp]
+10.8 +4.8 66 +9  1014.5  1.2  741  287           
15 23.10.21 220 (ЮЗ) н/о    4/3 600 м верхняя 
[Sc|Ci sp]
+7.5 +2.1 69 +5  1016.9  743  291    +11.6       
18 23.10.21 230 (ЮЗ) н/о    5/5 600 м 
[Sc]
+6.8 +1.9 71 +5  1018.2  1.3  744  292    +11.6       
21 23.10.21 210 (ЮЗ) н/о    8/8 600 м 
[Sc]
+6.6 +1.9 72 +4  1018.6  0.3  744  292           
00 24.10.21 210 (ЮЗ) н/о    8/8 600 м 
[Sc]
+6.2 +2 74 +4  1018.7  0.1  744  293           
03 24.10.21 200 (Ю) 20000 м    6/6 600 м 
[Sc]
+7.1 +2.5 73 +6  1019.5  0.8  745  292           
06 24.10.21 200 (Ю) 20000 м    10/10 600 м 
[Sc]
+8.9 +3.8 70 +7  1019.7  0.4  745  290  +6         
09 24.10.21 190 (Ю) 20000 м    9/9 600 м 
[Sc]
+12.6 +6.8 68 +11  1017.1  -2.1  744  285           
12 24.10.21 200 (Ю) 12  20000 м    6/6 600 м 
[Sc]
+13.6 +7.3 66 +12  1015.3  -1.8  742  284           
15 24.10.21 190 (Ю) 11  н/о    6/6 600 м 
[Sc]
+9.8 +4 67 +7  1015.4  -0.2  742  288    +13.8       
18 24.10.21 190 (Ю) н/о    8/8 600 м 
[Sc]
+9 +3.4 68 +6  1014.6  -0.9  741  289    +13.8       
21 24.10.21 210 (ЮЗ) н/о    8/8 600 м 
[Sc]
+7.3 +2.3 71 +5  1014  741  291           
00 25.10.21 190 (Ю) н/о    10/10 600 м 
[Sc]
+6.8 +1.9 71 +5  1015.6  0.8  742  291           
03 25.10.21 190 (Ю) 20000 м    10/10 600 м 
[Sc]
+5.3 +0.4 71 +4  1015.9  0.1  742  293           
06 25.10.21 170 (Ю) 10 км  слаб. ливневой дождь  10/10 300 м кучево-дожд. 
[Cb calv]
+5 +0.9 75 +5  1016.3  0.4  742  294  +5.1         
09 25.10.21 150 (ЮВ) 20000 м  {ливн. осадки}  10/10 600 м 
[Sc]
+5.4 +1.1 74 +6  1015.3  -1  742  293           
12 25.10.21 120 (ЮВ) 20000 м  {ливн. осадки}  10/10 600 м 
[Sc]
+6.3 +1.3 70 +5  1013.6  -1.5  740  291           
Время (UTC), дата Ветер
(°,м/с) 
Видим.   Явления Облачность Т
(°С)
Тd
(°С)
f(%) Тe
(°С)
Pmin
(гПа)
dP
(гПа)
Po
(мм)
O2
(г/м3)
Тmin Tmax R s Состояние
почвы

Для получения пояснительной информации подведите курсор к названию столбца.

ПОГОДА в Урицке - архив

Всё, что Вы хотите узнать о погоде в Урицке - удобно и подробно!

Выберите нужную дату (начиная с 1 января 2019* года) и нажмите кнопку "Найти".
Будут отображены архивные сводки погоды по пункту Урицк, начиная с указанной даты.


Отображать данные в формате CSV (для использования в таблицах Excel)


Внимание! Наш архив погоды предназначен исключительно для личного некоммерческого использования в познавательных целях. Если Вам необходимы официальные справки о состоянии погоды (для производственных, юридических, коммерческих и т.п. целей), обращайтесь в органы Росгидромета.

*Примечание: данная дата относится к архиву по метеостанциям СССР (Россия, СНГ, Балтия).
Архив по метеостанциям Зарубежной Европы и Азии (кроме Китая) хранится 10 дней, по другим регионам земного шара (Китай, Африка, Америка, Австралия, Океания) - 1 день.

Урицк - район местоположения метеостанции


Название, широта, долгота, высота метеостанции:
Урицк 53.3°ш. 65.6°д. 216 м над ур. моря [Казахстан]

Дополнительная информация

В oтличие oт бoльшинства пoгoдных сайтoв мы публикуем пoдрoбную метеoинфoрмацию в детальнoм прoфессиoнальнoм фoрмате.

Характеристики температуры и влажнoсти вoздуха измеряются на высoте 2 м в тени вдали oт зданий и деревьев.
Скoрoсть ветра измеряется на высoте 10 м (на урoвне рoста челoвека скoрoсть ветра ниже в 1.5-2 раза). Если метеoстанция нахoдится в гoрoде или в лесу, тo скoрoсть ветра занижена на 2-4 м/с пo сравнению с oткрытым местoм. Скoрoсть ветра над акватoриями крупных рек и oзёр, а также на вершинах хoлмoв на 2-5 м/с выше, чем в oбычных услoвиях.
Атмoсфернoе давление в разных тoчках местнoсти мoжет значительнo oтличаться oт давления на метеoстанции, в зависимoсти oт услoвий рельефа (при пoдъёме на 10 м давление пoнижается примернo на 1 мм рт.ст.).